Weather History for Tillamook, OR

Change the Weather History Date:

Thursday, July 12, 2012

  Actual Average (KMMV) Record (KMMV)
Temperature  
Mean Temperature 60 °F 66 °F  
Max Temperature 66 °F 81 °F 104 °F (1922)
Min Temperature 55 °F 51 °F 37 °F (1901)
Degree Days  
Heating Degree Days 4 1  
Month to date heating degree days 26  
Since 1 July heating degree days 26  
Cooling Degree Days 0 2  
Month to date cooling degree days 22  
Year to date cooling degree days 44  
Growing Degree Days 10 (Base 50)    
Moisture  
Dew Point 55 °F    
Average Humidity 85    
Maximum Humidity 100    
Minimum Humidity 68    
Precipitation  
Precipitation 0.00 in 0.01 in 0.41 in (2009)
Month to date precipitation 0.34  
Year to date precipitation 21.59  
Snow  
Snow 0.00 in - - ()
Month to date snowfall  
Since 1 June snowfall  
Since 1 July snowfall  
Snow Depth -    
Sea Level Pressure  
Sea Level Pressure 30.05 in    
Wind  
Wind Speed 2 mph (NW)    
Max Wind Speed 9 mph    
Max Gust Speed -    
Visibility 9 miles    
Events      
T = Trace of Precipitation, MM = Missing Value Source: NWS Daily Summary

Daily Weather History Graph

Daily Weather History Graph

Search for Another Location

Airport:

Trip Planner

Search our weather history database for the weather conditions in past years. The results will help you decide how hot, cold, wet, or windy it might be!

Date:

Astronomy

Jul. 12, 2012 Rise Set
Actual Time 6:39 AM MDT 10:02 PM MDT
Civil Twilight 6:02 AM MDT 10:38 PM MDT
Nautical Twilight 5:14 AM MDT 11:26 PM MDT
Astronomical Twilight 4:13 AM MDT 12:27 AM MDT
Moon 1:52 AM MDT (7/12) 4:36 PM MDT (7/12)
Length of Visible Light 16h 36m
Length of Day
15h 23m
Waning Crescent, 34% of the Moon is Illuminated
Jul 12
Waning Crescent
Jul 18
New
Jul 26
First Quarter
Aug 1
Full
Aug 9
Last Quarter

Hourly Weather History & Observations

Time (MDT) Temp. Dew Point Humidity Pressure Visibility Wind Dir Wind Speed Gust Speed Precip Events Conditions
12:15 AM 57.2 °F 53.6 °F 88% 30.04 in 10.0 mi WNW 5.8 mph - N/A   Overcast
12:55 AM 57.2 °F 55.4 °F 94% 30.04 in 10.0 mi Calm Calm - N/A   Overcast
1:15 AM 57.2 °F 57.2 °F 100% 30.04 in 7.0 mi Calm Calm - N/A   Overcast
1:35 AM 57.2 °F 55.4 °F 94% 30.04 in 7.0 mi Calm Calm - N/A   Overcast
1:55 AM 57.2 °F 55.4 °F 94% 30.04 in 7.0 mi Calm Calm - N/A   Overcast
2:15 AM 57.2 °F 55.4 °F 94% 30.04 in 10.0 mi Calm Calm - N/A   Overcast
2:35 AM 55.4 °F 55.4 °F 100% 30.04 in 7.0 mi Calm Calm - N/A   Overcast
2:55 AM 55.4 °F 55.4 °F 100% 30.03 in 5.0 mi Calm Calm - N/A   Overcast
3:15 AM 55.4 °F 55.4 °F 100% 30.04 in 5.0 mi Calm Calm - N/A   Overcast
3:35 AM 55.4 °F 55.4 °F 100% 30.03 in 5.0 mi Calm Calm - N/A   Overcast
3:55 AM 55.4 °F 55.4 °F 100% 30.03 in 5.0 mi Calm Calm - N/A   Overcast
4:15 AM 55.4 °F 55.4 °F 100% 30.03 in 7.0 mi Calm Calm - N/A   Overcast
4:35 AM 55.4 °F 55.4 °F 100% 30.04 in 7.0 mi Calm Calm - N/A   Overcast
4:55 AM 55.4 °F 55.4 °F 100% 30.04 in 7.0 mi Calm Calm - N/A   Overcast
5:15 AM 55.4 °F 55.4 °F 100% 30.04 in 4.0 mi SE 3.5 mph - N/A   Overcast
5:35 AM 55.4 °F 55.4 °F 100% 30.03 in 7.0 mi Calm Calm - N/A   Overcast
5:55 AM 55.4 °F 55.4 °F 100% 30.04 in 10.0 mi Calm Calm - N/A   Overcast
6:15 AM 55.4 °F 55.4 °F 100% 30.04 in 10.0 mi Calm Calm - N/A   Overcast
6:35 AM 55.4 °F 55.4 °F 100% 30.05 in 10.0 mi Calm Calm - N/A   Overcast
6:55 AM 57.2 °F 57.2 °F 100% 30.05 in 7.0 mi Calm Calm - N/A   Overcast
7:15 AM 55.4 °F 55.4 °F 100% 30.04 in 10.0 mi Calm Calm - N/A   Overcast
7:35 AM 55.4 °F 55.4 °F 100% 30.05 in 10.0 mi Calm Calm - N/A   Overcast
7:55 AM 57.2 °F 55.4 °F 94% 30.05 in 7.0 mi Calm Calm - N/A   Overcast
8:15 AM 55.4 °F 55.4 °F 100% 30.04 in 5.0 mi Calm Calm - N/A   Overcast
8:35 AM 57.2 °F 53.6 °F 88% 30.05 in 10.0 mi Calm Calm - N/A   Overcast
8:55 AM 57.2 °F 53.6 °F 88% 30.05 in 10.0 mi Calm Calm - N/A   Overcast
9:15 AM 57.2 °F 53.6 °F 88% 30.06 in 10.0 mi Calm Calm - N/A   Overcast
9:35 AM 57.2 °F 53.6 °F 88% 30.06 in 10.0 mi Calm Calm - N/A   Overcast
9:55 AM 57.2 °F 53.6 °F 88% 30.06 in 10.0 mi Calm Calm - N/A   Overcast
10:15 AM 57.2 °F 53.6 °F 88% 30.06 in 10.0 mi SE 3.5 mph - N/A   Overcast
10:35 AM 57.2 °F 53.6 °F 88% 30.06 in 10.0 mi East 3.5 mph - N/A   Overcast
10:55 AM 57.2 °F 53.6 °F 88% 30.07 in 10.0 mi Calm Calm - N/A   Overcast
11:15 AM 59.0 °F 53.6 °F 82% 30.07 in 10.0 mi Calm Calm - N/A   Overcast
11:35 AM 59.0 °F 55.4 °F 88% 30.07 in 10.0 mi Calm Calm - N/A   Overcast
11:55 AM 59.0 °F 55.4 °F 88% 30.07 in 10.0 mi Calm Calm - N/A   Overcast
12:15 PM 60.8 °F 55.4 °F 82% 30.07 in 10.0 mi NNW 3.5 mph - N/A   Overcast
12:35 PM 60.8 °F 55.4 °F 82% 30.08 in 10.0 mi WNW 4.6 mph - N/A   Overcast
12:55 PM 60.8 °F 55.4 °F 82% 30.08 in 10.0 mi WNW 8.1 mph - N/A   Overcast
1:15 PM 62.6 °F 55.4 °F 77% 30.08 in 10.0 mi NNW 4.6 mph - N/A   Overcast
1:35 PM 62.6 °F 55.4 °F 77% 30.07 in 10.0 mi West 5.8 mph - N/A   Overcast
1:55 PM 62.6 °F 55.4 °F 77% 30.07 in 10.0 mi West 5.8 mph - N/A   Overcast
2:15 PM 64.4 °F 55.4 °F 73% 30.07 in 10.0 mi WNW 8.1 mph - N/A   Overcast
2:35 PM 64.4 °F 55.4 °F 73% 30.07 in 10.0 mi Calm Calm - N/A   Overcast
3:15 PM 64.4 °F 57.2 °F 77% 30.07 in 10.0 mi SW 5.8 mph - N/A   Overcast
3:35 PM 66.2 °F 57.2 °F 73% 30.07 in 10.0 mi WNW 5.8 mph - N/A   Overcast
3:55 PM 66.2 °F 55.4 °F 68% 30.07 in 10.0 mi NNW 9.2 mph - N/A   Overcast
4:15 PM 66.2 °F 55.4 °F 68% 30.07 in 10.0 mi NW 3.5 mph - N/A   Overcast
4:35 PM 66.2 °F 55.4 °F 68% 30.07 in 10.0 mi WNW 3.5 mph - N/A   Overcast
4:55 PM 66.2 °F 55.4 °F 68% 30.06 in 10.0 mi West 5.8 mph - N/A   Overcast
5:15 PM 66.2 °F 55.4 °F 68% 30.06 in 10.0 mi NNW 9.2 mph - N/A   Overcast
5:35 PM 66.2 °F 55.4 °F 68% 30.06 in 10.0 mi NNW 8.1 mph - N/A   Mostly Cloudy
5:55 PM 66.2 °F 55.4 °F 68% 30.06 in 10.0 mi NNW 8.1 mph - N/A   Scattered Clouds
6:15 PM 66.2 °F 55.4 °F 68% 30.05 in 10.0 mi NW 8.1 mph - N/A   Scattered Clouds
6:35 PM 66.2 °F 55.4 °F 68% 30.05 in 10.0 mi WNW 3.5 mph - N/A   Scattered Clouds
6:55 PM 66.2 °F 55.4 °F 68% 30.05 in 10.0 mi NW 4.6 mph - N/A   Scattered Clouds
7:15 PM 64.4 °F 55.4 °F 73% 30.05 in 10.0 mi NNW 5.8 mph - N/A   Mostly Cloudy
7:35 PM 64.4 °F 55.4 °F 73% 30.05 in 10.0 mi WNW 6.9 mph - N/A   Overcast
7:55 PM 64.4 °F 55.4 °F 73% 30.05 in 10.0 mi NW 5.8 mph - N/A   Overcast
8:35 PM 64.4 °F 53.6 °F 68% 30.05 in 10.0 mi NW 6.9 mph - N/A   Overcast
8:55 PM 64.4 °F 53.6 °F 68% 30.05 in 10.0 mi NW 8.1 mph - N/A   Overcast
9:15 PM 62.6 °F 53.6 °F 72% 30.06 in 10.0 mi NW 8.1 mph - N/A   Overcast
9:35 PM 62.6 °F 53.6 °F 72% 30.06 in 10.0 mi WNW 8.1 mph - N/A   Overcast
9:55 PM 60.8 °F 53.6 °F 77% 30.06 in 10.0 mi NW 6.9 mph - N/A   Overcast
10:15 PM 60.8 °F 53.6 °F 77% 30.06 in 10.0 mi WNW 5.8 mph - N/A   Overcast
11:15 PM 60.8 °F 53.6 °F 77% 30.07 in 10.0 mi Calm Calm - N/A   Overcast
11:35 PM 59.0 °F 53.6 °F 82% 30.07 in 10.0 mi Calm Calm - N/A   Overcast
11:55 PM 59.0 °F 53.6 °F 82% 30.07 in 10.0 mi Calm Calm - N/A   Overcast